Waarnemingen

Advertentie
Mijn weer
Marina Di Ginosa, Italië (16325): temperatuur & dauwpunt: 14.10.2017 12:00:00 - 20.10.2017 12:00:00 (CEST)Marina Di Ginosa, Italië (16325): windsnelheid: 14.10.2017 12:00:00 - 20.10.2017 12:00:00 (CEST)Marina Di Ginosa, Italië (16325): windrichting: 14.10.2017 12:00:00 - 20.10.2017 12:00:00 (CEST)Marina Di Ginosa, Italië (16325): luchtdruk: 14.10.2017 12:00:00 - 20.10.2017 12:00:00 (CEST)Marina Di Ginosa, Italië (16325): zicht: 14.10.2017 12:00:00 - 20.10.2017 12:00:00 (CEST)
Datum & Tijd tt [°C] td [°C] ff [km/u] ff [kn] dd ppp [hPa] vv [km]
20.10.2017 12:00:00 - - - - - - -
20.10.2017 11:00:00 20,8 16,8 8 4 WNW 1018,4 10
20.10.2017 10:00:00 17,0 16,0 13 7 NW - 10
20.10.2017 09:00:00 16,0 16,0 11 6 NW - 10
20.10.2017 08:00:00 15,2 15,2 11 6 WNW 1017,8 10
20.10.2017 07:00:00 16,0 16,0 11 6 WNW - 10
20.10.2017 06:00:00 16,0 16,0 11 6 W - 10
20.10.2017 05:00:00 15,4 15,4 9 5 WNW 1017,4 10
20.10.2017 04:00:00 16,0 16,0 8 4 NW - 10
20.10.2017 03:00:00 15,0 15,0 9 5 NNW - 10
20.10.2017 02:00:00 15,2 15,2 11 6 NNW 1017,4 10
20.10.2017 01:00:00 - - - - - - -
20.10.2017 00:00:00 15,0 15,0 11 6 NNW - 10
19.10.2017 23:00:00 15,4 15,4 9 5 NNW 1017,4 10
19.10.2017 22:00:00 - - - - - - -
19.10.2017 21:00:00 16,0 15,0 8 4 N - 10
19.10.2017 20:00:00 17,6 16,5 4 2 NW 1016,8 10
19.10.2017 19:00:00 19,0 18,0 4 2 Z - 10
19.10.2017 18:00:00 22,0 20,0 8 4 ZZO - 10
19.10.2017 17:00:00 22,2 18,6 9 5 Z 1016,9 10
19.10.2017 16:00:00 22,0 18,0 9 5 ZO - 10
19.10.2017 15:00:00 22,0 18,0 9 5 OZO - 10
19.10.2017 14:00:00 22,4 17,8 9 5 O 1017,6 10
19.10.2017 13:00:00 22,0 17,0 8 4 OZO - 8
19.10.2017 12:00:00 21,0 17,0 8 4 OZO - 8
19.10.2017 11:00:00 18,2 15,3 4 2 ZO 1018,0 8
19.10.2017 10:00:00 15,0 15,0 4 2 WNW - 8
19.10.2017 09:00:00 13,0 13,0 9 5 WNW - 6
19.10.2017 08:00:00 13,0 13,0 11 6 NW 1017,6 4,0
19.10.2017 07:00:00 13,0 13,0 13 7 WNW - 4,0
19.10.2017 06:00:00 14,0 14,0 13 7 WNW - 3,0
19.10.2017 05:00:00 14,4 14,4 11 6 NW 1017,6 3,0
19.10.2017 04:00:00 14,0 14,0 11 6 WNW - 3,0
19.10.2017 03:00:00 - - - - - - -
19.10.2017 02:00:00 15,0 15,0 11 6 WNW 1017,6 3,0
19.10.2017 01:00:00 15,0 15,0 11 6 NNW - 3,0
19.10.2017 00:00:00 16,0 16,0 9 5 NNW - 3,0
18.10.2017 23:00:00 15,6 15,6 9 5 NW 1018,0 10
18.10.2017 22:00:00 17,0 17,0 9 5 N - 10
18.10.2017 21:00:00 17,0 16,0 4 2 WNW - 10
18.10.2017 20:00:00 16,8 16,3 4 2 W 1017,6 10
18.10.2017 19:00:00 19,0 18,0 5 3 WZW - 10
18.10.2017 18:00:00 21,0 19,0 8 4 Z - 10
18.10.2017 17:00:00 21,8 19,0 9 5 Z 1017,4 10
18.10.2017 16:00:00 22,0 19,0 9 5 Z - 10
18.10.2017 15:00:00 23,0 18,0 11 6 Z - 10
18.10.2017 14:00:00 22,6 15,5 11 6 ZZO 1018,8 10
18.10.2017 13:00:00 23,0 14,0 9 5 ZO - 10
18.10.2017 12:00:00 22,0 14,0 9 5 ZO - 10
18.10.2017 11:00:00 20,0 12,0 5 3 OZO 1020,1 10
18.10.2017 10:00:00 18,0 11,0 4 2 NW - 10
18.10.2017 09:00:00 14,0 10,0 9 5 WNW - 10
18.10.2017 08:00:00 12,8 11,4 11 6 WNW 1020,2 10
18.10.2017 07:00:00 13,0 11,0 13 7 WNW - 10
18.10.2017 06:00:00 13,0 11,0 11 6 WNW - 10
18.10.2017 05:00:00 13,2 11,8 9 5 WNW 1020,4 10
18.10.2017 04:00:00 14,0 13,0 9 5 WNW - 10
18.10.2017 03:00:00 14,0 14,0 11 6 NW - 10
18.10.2017 02:00:00 14,8 14,8 9 5 NW 1021,4 10
18.10.2017 01:00:00 16,0 16,0 9 5 NW - 10
18.10.2017 00:00:00 16,0 16,0 8 4 WNW - 10
17.10.2017 23:00:00 17,0 17,0 8 4 N 1021,8 10
17.10.2017 22:00:00 18,0 18,0 5 3 NNW - 10
17.10.2017 21:00:00 18,0 18,0 8 4 NNW - 10
17.10.2017 20:00:00 18,2 17,9 5 3 W 1021,8 10
17.10.2017 19:00:00 20,0 19,0 8 4 ZZW - 10
17.10.2017 18:00:00 22,0 19,0 9 5 ZZW - 10
17.10.2017 17:00:00 23,4 18,7 11 6 Z 1021,6 10
17.10.2017 16:00:00 24,0 19,0 4 2 Z - 10
17.10.2017 15:00:00 24,0 18,0 15 8 ZZW - 10
17.10.2017 14:00:00 23,8 14,2 9 5 ZZO 1023,4 10
17.10.2017 13:00:00 24,0 13,0 8 4 OZO - 10
17.10.2017 12:00:00 24,0 9,0 8 4 OZO - 10
17.10.2017 11:00:00 21,6 7,4 4 2 WNW 1025,0 10
17.10.2017 10:00:00 18,0 10,0 8 4 WNW - 10
17.10.2017 09:00:00 14,0 10,0 11 6 WNW - 10
17.10.2017 08:00:00 13,0 10,5 13 7 WNW 1024,4 10
17.10.2017 07:00:00 13,0 10,0 13 7 WNW - 10
17.10.2017 06:00:00 13,0 11,0 11 6 WNW - 10
17.10.2017 05:00:00 14,2 11,2 13 7 WNW 1024,4 10
17.10.2017 04:00:00 14,0 12,0 13 7 WNW - 10
17.10.2017 03:00:00 15,0 12,0 13 7 NW - 10
17.10.2017 02:00:00 14,8 12,3 11 6 NW 1025,4 10
17.10.2017 01:00:00 15,0 13,0 13 7 WNW - 10
17.10.2017 00:00:00 15,0 13,0 13 7 WNW - 10
16.10.2017 23:00:00 16,8 16,2 11 6 NW 1025,8 10
16.10.2017 22:00:00 18,0 17,0 11 6 NW - 10
16.10.2017 21:00:00 18,0 17,0 9 5 NW - 10
16.10.2017 20:00:00 19,8 18,1 5 3 ZW 1025,4 10
16.10.2017 19:00:00 23,0 21,0 5 3 WZW - 10
16.10.2017 18:00:00 24,0 19,0 8 4 ZZW - 10
16.10.2017 17:00:00 25,0 18,5 11 6 Z 1024,6 10
16.10.2017 16:00:00 25,0 18,0 11 6 ZZO - 10
16.10.2017 15:00:00 25,0 17,0 15 8 ZZO - 10
16.10.2017 14:00:00 26,0 12,1 9 5 ZZO 1026,0 10
16.10.2017 13:00:00 26,0 9,0 9 5 ZO - 10
16.10.2017 12:00:00 24,0 10,0 5 3 N - 10
16.10.2017 11:00:00 21,0 11,1 9 5 W 1027,2 10
16.10.2017 10:00:00 16,0 10,0 8 4 W - 10
16.10.2017 09:00:00 13,0 11,0 9 5 NW - 10
16.10.2017 08:00:00 13,0 11,7 4 2 NNO 1026,4 10
16.10.2017 07:00:00 13,0 13,0 13 7 WNW - 10
16.10.2017 06:00:00 13,0 13,0 9 5 WNW - 10
16.10.2017 05:00:00 13,2 13,2 13 7 NW 1026,3 15
16.10.2017 04:00:00 14,0 14,0 11 6 NW - 10
16.10.2017 03:00:00 14,0 14,0 9 5 NW - 10
16.10.2017 02:00:00 14,2 14,0 8 4 NNW 1026,3 15
16.10.2017 01:00:00 15,0 15,0 8 4 N - 10
16.10.2017 00:00:00 17,0 17,0 4 2 NNW - 10
15.10.2017 23:00:00 18,6 18,1 8 4 WNW 1026,3 10
15.10.2017 22:00:00 19,0 18,0 9 5 NNW - 10
15.10.2017 21:00:00 20,0 18,0 15 8 NNO - 10
15.10.2017 20:00:00 19,8 17,8 11 6 NNO 1026,1 10
15.10.2017 19:00:00 21,0 18,0 5 3 ZW - 10
15.10.2017 18:00:00 23,0 20,0 11 6 ZZW - 10
15.10.2017 17:00:00 24,4 20,3 11 6 ZZW 1025,3 10
15.10.2017 16:00:00 25,0 18,0 13 7 Z - 10
15.10.2017 15:00:00 25,0 18,0 13 7 ZZO - 10
15.10.2017 14:00:00 26,8 7,3 13 7 NNO 1026,2 10
15.10.2017 13:00:00 27,0 8,0 13 7 NNO - 10
15.10.2017 12:00:00 25,0 10,0 5 3 OZO - 10
15.10.2017 11:00:00 23,8 11,2 9 5 NW 1026,7 10
15.10.2017 10:00:00 20,0 12,0 16 9 NW - 10
15.10.2017 09:00:00 17,0 13,0 15 8 NW - 10
15.10.2017 08:00:00 14,0 12,9 16 9 NW 1026,4 10
15.10.2017 07:00:00 13,0 13,0 13 7 WNW - 10
15.10.2017 06:00:00 14,0 13,0 11 6 WNW - 10
15.10.2017 05:00:00 15,0 14,2 13 7 NW 1026,4 10
15.10.2017 04:00:00 15,0 14,0 11 6 WNW - 10
15.10.2017 03:00:00 15,0 14,0 11 6 NW - 10
15.10.2017 02:00:00 15,2 14,4 11 6 WNW 1026,4 10
15.10.2017 01:00:00 16,0 15,0 13 7 WNW - 10
15.10.2017 00:00:00 18,0 17,0 9 5 WNW - 10
14.10.2017 23:00:00 17,8 16,5 13 7 WNW 1026,3 10
14.10.2017 22:00:00 18,0 16,0 11 6 WNW - 10
14.10.2017 21:00:00 18,0 16,0 9 5 W - 10
14.10.2017 20:00:00 20,0 16,8 18 10 N 1025,3 10
14.10.2017 19:00:00 21,0 14,0 13 7 N - 10
14.10.2017 18:00:00 23,0 14,0 15 8 N - 10
14.10.2017 17:00:00 24,2 12,5 16 9 NNO 1024,5 10
14.10.2017 16:00:00 25,0 9,0 16 9 NNO - 10
14.10.2017 15:00:00 25,0 9,0 13 7 N - 10
14.10.2017 14:00:00 24,6 9,4 13 7 ZO 1025,2 10
14.10.2017 13:00:00 24,0 9,0 13 7 NNO - 10
14.10.2017 12:00:00 23,0 10,0 11 6 NNW - 10

tt = temperatuur
td = dauwpunt
ff = windsnelheid
dd = windrichting
ppp = luchtdruk
vv = zicht

Weerstations in de omgeving